Location: Wyrd Works
(51.8174°N, 113.2200°W)
Time: 16:19:20
(UTC-07:00)

ISS - Visible Passes

Search period start: 21 November 2017 00:00
Search period end: 01 December 2017 00:00
Orbit: 402 x 407 km, 51.6° (Epoch: 22 November)

Date Brightness Start Highest point End Pass type
(mag) Time Alt. Az. Time Alt. Az. Time Alt. Az.
27 Nov -1.0 18:51:01 10° S 18:51:12 11° S 18:51:12 11° S visible
28 Nov -0.7 19:33:38 10° SW 19:33:50 11° SW 19:33:50 11° SW visible
29 Nov -2.1 18:41:40 10° SSW 18:43:43 24° S 18:43:43 24° S visible
30 Nov -1.8 17:50:00 10° S 17:52:17 18° SE 17:53:32 15° ESE visible
30 Nov -1.2 19:25:04 10° WSW 19:26:11 19° WSW 19:26:11 19° WSW visible
